Time,TemperatureF,DewpointF,PressureIn,WindDirection,WindDirectionDegrees,WindSpeedMPH,WindSpeedGustMPH,Humidity,HourlyPrecipIn,Conditions,Clouds,dailyrainin,SolarRadiationWatts/m^2,SoftwareType,DateUTC
2013-04-24 00:00:00,42.3,41.7,30.21,NNW,348,5.0,7.0,98,-99.99,,,-99.99,0.0,meteohub,2013-04-24 04:00:00,
2013-04-24 00:01:00,42.3,41.7,30.21,NE,43,1.0,7.0,98,-99.99,,,-99.99,0.0,meteohub,2013-04-24 04:01:00,
2013-04-24 00:03:00,42.4,41.9,30.20,NNE,29,1.0,7.0,98,-99.99,,,-99.99,0.0,meteohub,2013-04-24 04:03:00,
2013-04-24 00:05:00,42.4,41.9,30.21,NNE,29,3.0,7.0,98,-99.99,,,-99.99,0.0,meteohub,2013-04-24 04:05:00,
2013-04-24 00:09:00,42.4,41.9,30.20,NW,322,3.0,7.0,98,-99.99,,,-99.99,0.0,meteohub,2013-04-24 04:09:00,
2013-04-24 00:14:00,42.4,41.9,30.19,NE,46,2.0,7.0,98,-99.99,,,-99.99,0.0,meteohub,2013-04-24 04:14:00,
2013-04-24 00:19:00,42.4,41.9,30.19,NNE,23,2.0,7.0,98,-99.99,,,-99.99,0.0,meteohub,2013-04-24 04:19:00,
2013-04-24 00:24:00,42.4,41.9,30.19,NE,34,3.0,10.0,98,-99.99,,,-99.99,0.0,meteohub,2013-04-24 04:24:00,
2013-04-24 00:29:00,42.4,41.9,30.19,NNW,333,1.0,10.0,98,-99.99,,,-99.99,0.0,meteohub,2013-04-24 04:29:00,
2013-04-24 00:34:00,42.6,42.1,30.18,NNE,28,1.0,10.0,98,-99.99,,,-99.99,0.0,meteohub,2013-04-24 04:34:00,
2013-04-24 00:39:00,42.6,42.1,30.18,NE,50,2.0,10.0,98,-99.99,,,-99.99,0.0,meteohub,2013-04-24 04:39:00,
2013-04-24 00:44:00,42.6,42.1,30.18,North,5,6.0,10.0,98,-99.99,,,-99.99,0.0,meteohub,2013-04-24 04:44:00,
2013-04-24 00:49:00,42.4,41.9,30.18,NNW,339,5.0,12.0,98,-99.99,,,-99.99,0.0,meteohub,2013-04-24 04:49:00,
2013-04-24 00:54:00,42.4,41.9,30.17,NNW,344,0.0,12.0,98,-99.99,,,-99.99,0.0,meteohub,2013-04-24 04:54:00,
2013-04-24 00:59:00,42.4,41.9,30.17,NNE,17,0.0,6.0,98,-99.99,,,-99.99,0.0,meteohub,2013-04-24 04:59:00,
2013-04-24 01:04:00,42.4,41.9,30.17,North,5,0.0,5.0,98,-99.99,,,-99.99,0.0,meteohub,2013-04-24 05:04:00,
2013-04-24 01:09:00,42.4,41.9,30.16,NNE,32,3.0,5.0,98,-99.99,,,-99.99,0.0,meteohub,2013-04-24 05:09:00,
2013-04-24 01:14:00,42.4,41.9,30.16,NNE,29,0.0,6.0,98,-99.99,,,-99.99,0.0,meteohub,2013-04-24 05:14:00,
2013-04-24 01:19:00,42.4,41.9,30.15,North,355,3.0,7.0,98,-99.99,,,-99.99,0.0,meteohub,2013-04-24 05:19:00,
2013-04-24 01:24:00,42.4,41.9,30.15,NNW,346,1.0,7.0,98,-99.99,,,-99.99,0.0,meteohub,2013-04-24 05:24:00,
2013-04-24 01:29:00,42.6,42.1,30.15,NE,49,0.0,5.0,98,-99.99,,,-99.99,0.0,meteohub,2013-04-24 05:29:00,
2013-04-24 01:34:00,42.6,42.1,30.14,NNW,348,1.0,5.0,98,-99.99,,,-99.99,0.0,meteohub,2013-04-24 05:34:00,
2013-04-24 01:39:00,42.6,42.1,30.14,North,355,2.0,5.0,98,-99.99,,,-99.99,0.0,meteohub,2013-04-24 05:39:00,
2013-04-24 01:44:00,42.6,42.1,30.14,NNE,30,0.0,3.0,98,-99.99,,,-99.99,0.0,meteohub,2013-04-24 05:44:00,
2013-04-24 01:49:00,42.6,42.1,30.13,NW,318,1.0,3.0,98,-99.99,,,-99.99,0.0,meteohub,2013-04-24 05:49:00,
2013-04-24 01:54:00,42.6,42.1,30.13,NNW,331,1.0,3.0,98,-99.99,,,-99.99,0.0,meteohub,2013-04-24 05:54:00,
2013-04-24 01:59:00,42.6,42.1,30.12,NNE,19,1.0,4.0,98,-99.99,,,-99.99,0.0,meteohub,2013-04-24 05:59:00,
2013-04-24 02:04:00,42.6,42.1,30.12,NW,310,2.0,4.0,98,-99.99,,,-99.99,0.0,meteohub,2013-04-24 06:04:00,
2013-04-24 02:09:00,42.6,42.1,30.12,NNE,15,0.0,4.0,98,-99.99,,,-99.99,0.0,meteohub,2013-04-24 06:09:00,
2013-04-24 02:14:00,42.8,42.3,30.12,NNE,21,1.0,4.0,98,-99.99,,,-99.99,0.0,meteohub,2013-04-24 06:14:00,
2013-04-24 02:19:00,42.8,42.3,30.12,NNW,336,1.0,3.0,98,-99.99,,,-99.99,0.0,meteohub,2013-04-24 06:19:00,
2013-04-24 02:24:00,43.0,42.4,30.12,NE,41,2.0,8.0,98,-99.99,,,-99.99,0.0,meteohub,2013-04-24 06:24:00,
2013-04-24 02:29:00,43.0,42.4,30.11,NNE,14,2.0,8.0,98,-99.99,,,-99.99,0.0,meteohub,2013-04-24 06:29:00,
2013-04-24 02:34:00,43.0,42.4,30.11,North,0,1.0,8.0,98,-99.99,,,-99.99,0.0,meteohub,2013-04-24 06:34:00,
2013-04-24 02:39:00,43.0,42.4,30.11,NNE,20,1.0,10.0,98,-99.99,,,-99.99,0.0,meteohub,2013-04-24 06:39:00,
2013-04-24 02:44:00,43.0,42.4,30.11,NE,35,2.0,10.0,98,-99.99,,,-99.99,0.0,meteohub,2013-04-24 06:44:00,
2013-04-24 02:49:00,43.0,42.4,30.10,NNW,328,1.0,10.0,98,-99.99,,,-99.99,0.0,meteohub,2013-04-24 06:49:00,
2013-04-24 02:54:00,43.0,42.4,30.10,West,265,0.0,11.0,98,-99.99,,,-99.99,0.0,meteohub,2013-04-24 06:54:00,
2013-04-24 02:59:00,43.0,42.4,30.09,NW,312,0.0,11.0,98,-99.99,,,-99.99,0.0,meteohub,2013-04-24 06:59:00,
2013-04-24 03:04:00,43.0,42.4,30.09,NNE,28,3.0,11.0,98,-99.99,,,-99.99,0.0,meteohub,2013-04-24 07:04:00,
2013-04-24 03:09:00,43.0,42.4,30.09,North,355,0.0,5.0,98,-99.99,,,-99.99,0.0,meteohub,2013-04-24 07:09:00,
2013-04-24 03:14:00,43.0,42.4,30.08,East,86,2.0,5.0,98,-99.99,,,-99.99,0.0,meteohub,2013-04-24 07:14:00,
2013-04-24 03:19:00,43.0,42.4,30.08,NNW,345,3.0,7.0,98,-99.99,,,-99.99,0.0,meteohub,2013-04-24 07:19:00,
2013-04-24 03:24:00,43.0,42.8,30.08,NNE,29,1.0,7.0,99,-99.99,,,-99.99,0.0,meteohub,2013-04-24 07:24:00,
2013-04-24 03:29:00,43.0,42.8,30.07,North,355,3.0,7.0,99,-99.99,,,-99.99,0.0,meteohub,2013-04-24 07:29:00,
2013-04-24 03:34:00,43.2,43.0,30.07,WNW,303,5.0,9.0,99,-99.99,,,-99.99,0.0,meteohub,2013-04-24 07:34:00,
2013-04-24 03:39:00,43.2,43.0,30.06,NNW,344,1.0,9.0,99,-99.99,,,-99.99,0.0,meteohub,2013-04-24 07:39:00,
2013-04-24 03:44:00,43.2,43.0,30.06,NNW,348,1.0,9.0,99,-99.99,,,-99.99,0.0,meteohub,2013-04-24 07:44:00,
2013-04-24 03:49:00,43.2,43.0,30.06,NNW,336,0.0,10.0,99,-99.99,,,-99.99,0.0,meteohub,2013-04-24 07:49:00,
2013-04-24 03:54:00,43.2,43.0,30.06,NE,46,3.0,10.0,99,-99.99,,,-99.99,0.0,meteohub,2013-04-24 07:54:00,
2013-04-24 03:59:00,43.2,43.0,30.06,NE,44,6.0,6.0,99,-99.99,,,-99.99,0.0,meteohub,2013-04-24 07:59:00,
2013-04-24 04:04:00,43.2,43.0,30.06,NNW,327,0.0,5.0,99,-99.99,,,-99.99,0.0,meteohub,2013-04-24 08:04:00,
2013-04-24 04:09:00,43.2,43.0,30.05,NE,50,0.0,6.0,99,-99.99,,,-99.99,0.0,meteohub,2013-04-24 08:09:00,
2013-04-24 04:14:00,43.2,42.6,30.05,NNW,333,0.0,6.0,98,-99.99,,,-99.99,0.0,meteohub,2013-04-24 08:14:00,
2013-04-24 04:19:00,43.2,42.6,30.04,NE,34,0.0,6.0,98,-99.99,,,-99.99,0.0,meteohub,2013-04-24 08:19:00,
2013-04-24 04:24:00,43.2,43.0,30.05,NW,316,3.0,7.0,99,-99.99,,,-99.99,0.0,meteohub,2013-04-24 08:24:00,
2013-04-24 04:29:00,43.2,43.0,30.04,NNW,331,0.0,7.0,99,-99.99,,,-99.99,0.0,meteohub,2013-04-24 08:29:00,
2013-04-24 04:34:00,43.2,43.0,30.04,ENE,57,2.0,7.0,99,-99.99,,,-99.99,0.0,meteohub,2013-04-24 08:34:00,
2013-04-24 04:39:00,43.2,43.0,30.04,West,263,0.0,5.0,99,-99.99,,,-99.99,0.0,meteohub,2013-04-24 08:39:00,
2013-04-24 04:44:00,43.2,43.0,30.03,NW,318,1.0,5.0,99,-99.99,,,-99.99,0.0,meteohub,2013-04-24 08:44:00,
2013-04-24 04:49:00,43.2,43.0,30.03,NNE,15,2.0,4.0,99,-99.99,,,-99.99,0.0,meteohub,2013-04-24 08:49:00,
2013-04-24 04:54:00,43.2,43.0,30.03,NE,38,0.0,6.0,99,-99.99,,,-99.99,0.0,meteohub,2013-04-24 08:54:00,
2013-04-24 04:59:00,43.2,43.0,30.03,ENE,63,2.0,8.0,99,-99.99,,,-99.99,0.0,meteohub,2013-04-24 08:59:00,
2013-04-24 05:04:00,43.3,43.2,30.03,North,5,0.0,8.0,99,-99.99,,,-99.99,0.0,meteohub,2013-04-24 09:04:00,
2013-04-24 05:09:00,43.3,43.2,30.02,North,0,4.0,7.0,99,-99.99,,,-99.99,0.0,meteohub,2013-04-24 09:09:00,
2013-04-24 05:14:00,43.3,43.2,30.02,NNE,33,0.0,7.0,99,-99.99,,,-99.99,0.0,meteohub,2013-04-24 09:14:00,
2013-04-24 05:19:00,43.3,43.2,30.02,NE,42,0.0,7.0,99,-99.99,,,-99.99,0.0,meteohub,2013-04-24 09:19:00,
2013-04-24 05:24:00,43.3,43.2,30.01,North,11,0.0,7.0,99,-99.99,,,-99.99,0.0,meteohub,2013-04-24 09:24:00,
2013-04-24 05:29:00,43.3,43.2,30.01,North,5,1.0,6.0,99,-99.99,,,-99.99,0.0,meteohub,2013-04-24 09:29:00,
2013-04-24 05:34:00,43.3,43.2,30.01,NNW,339,2.0,8.0,99,-99.99,,,-99.99,0.0,meteohub,2013-04-24 09:34:00,
2013-04-24 05:40:00,43.3,43.2,30.01,NNE,26,5.0,8.0,99,-99.99,,,-99.99,0.0,meteohub,2013-04-24 09:40:00,
2013-04-24 05:45:00,43.5,43.3,30.01,NNE,14,4.0,7.0,99,-99.99,,,-99.99,0.0,meteohub,2013-04-24 09:45:00,
2013-04-24 05:50:00,43.5,43.3,30.01,North,355,2.0,7.0,99,-99.99,,,-99.99,0.0,meteohub,2013-04-24 09:50:00,
2013-04-24 05:55:00,43.5,43.3,30.01,NNE,14,1.0,7.0,99,-99.99,,,-99.99,0.0,meteohub,2013-04-24 09:55:00,
2013-04-24 06:00:00,43.5,43.3,30.00,ENE,75,2.0,7.0,99,-99.99,,,-99.99,5.0,meteohub,2013-04-24 10:00:00,
2013-04-24 06:05:00,43.7,43.5,30.00,NW,326,3.0,7.0,99,-99.99,,,-99.99,5.0,meteohub,2013-04-24 10:05:00,
2013-04-24 06:10:00,43.9,43.7,30.00,NNW,346,5.0,8.0,99,-99.99,,,-99.99,7.0,meteohub,2013-04-24 10:10:00,
2013-04-24 06:15:00,43.9,43.7,30.00,North,5,3.0,9.0,99,-99.99,,,-99.99,7.0,meteohub,2013-04-24 10:15:00,
2013-04-24 06:20:00,43.9,43.7,30.00,NNE,19,5.0,9.0,99,-99.99,,,-99.99,11.0,meteohub,2013-04-24 10:20:00,
2013-04-24 06:25:00,43.9,43.7,30.00,NNE,28,3.0,9.0,99,-99.99,,,-99.99,9.0,meteohub,2013-04-24 10:25:00,
2013-04-24 06:30:00,44.1,43.9,30.00,North,0,5.0,9.0,99,-99.99,,,-99.99,12.0,meteohub,2013-04-24 10:30:00,
2013-04-24 06:35:00,44.1,43.9,29.99,NNE,21,4.0,9.0,99,-99.99,,,-99.99,14.0,meteohub,2013-04-24 10:35:00,
2013-04-24 06:40:00,44.1,43.9,29.99,NNE,30,6.0,8.0,99,-99.99,,,-99.99,14.0,meteohub,2013-04-24 10:40:00,
2013-04-24 06:45:00,44.1,43.9,29.99,North,9,4.0,14.0,99,-99.99,,,-99.99,11.0,meteohub,2013-04-24 10:45:00,
2013-04-24 06:50:00,44.1,43.9,29.99,NE,38,1.0,14.0,99,-99.99,,,-99.99,11.0,meteohub,2013-04-24 10:50:00,
2013-04-24 06:55:00,44.1,43.9,29.99,ENE,61,7.0,10.0,99,-99.99,,,-99.99,7.0,meteohub,2013-04-24 10:55:00,
2013-04-24 07:00:00,44.1,43.9,29.99,NNE,17,0.0,6.0,99,-99.99,,,-99.99,5.0,meteohub,2013-04-24 11:00:00,
2013-04-24 07:05:00,44.1,43.9,29.99,North,5,6.0,7.0,99,-99.99,,,-99.99,0.0,meteohub,2013-04-24 11:05:00,
2013-04-24 07:10:00,44.1,43.9,29.99,NE,36,1.0,7.0,99,-99.99,,,-99.99,0.0,meteohub,2013-04-24 11:10:00,
2013-04-24 07:15:00,44.2,44.1,29.98,NNE,12,0.0,7.0,99,-99.99,,,-99.99,0.0,meteohub,2013-04-24 11:15:00,
2013-04-24 07:20:00,44.2,44.1,29.98,NNE,13,2.0,7.0,99,-99.99,,,-99.99,0.0,meteohub,2013-04-24 11:20:00,
2013-04-24 07:25:00,44.2,44.1,29.97,NNE,23,4.0,7.0,99,-99.99,,,-99.99,5.0,meteohub,2013-04-24 11:25:00,
2013-04-24 07:30:00,44.2,44.1,29.97,North,5,3.0,7.0,99,-99.99,,,-99.99,7.0,meteohub,2013-04-24 11:30:00,
2013-04-24 07:35:00,44.2,44.1,29.97,NNW,341,2.0,7.0,99,-99.99,,,-99.99,9.0,meteohub,2013-04-24 11:35:00,
2013-04-24 07:40:00,44.4,44.2,29.96,North,355,1.0,9.0,99,-99.99,,,-99.99,12.0,meteohub,2013-04-24 11:40:00,
2013-04-24 07:45:00,44.4,44.2,29.96,SW,220,3.0,9.0,99,-99.99,,,-99.99,16.0,meteohub,2013-04-24 11:45:00,
2013-04-24 07:50:00,44.4,44.2,29.96,NNE,14,1.0,9.0,99,-99.99,,,-99.99,19.0,meteohub,2013-04-24 11:50:00,
2013-04-24 07:55:00,44.6,44.4,29.96,NNW,342,1.0,6.0,99,-99.99,,,-99.99,23.0,meteohub,2013-04-24 11:55:00,
2013-04-24 08:00:00,44.6,44.4,29.96,NNE,17,4.0,10.0,99,-99.99,,,-99.99,28.0,meteohub,2013-04-24 12:00:00,
2013-04-24 08:05:00,44.8,44.6,29.96,NNE,21,3.0,10.0,99,-99.99,,,-99.99,25.0,meteohub,2013-04-24 12:05:00,
2013-04-24 08:10:00,45.0,44.8,29.95,NNE,12,2.0,10.0,99,-99.99,,,-99.99,26.0,meteohub,2013-04-24 12:10:00,
2013-04-24 08:15:00,45.1,45.0,29.95,NNE,19,1.0,7.0,99,-99.99,,,-99.99,26.0,meteohub,2013-04-24 12:15:00,
2013-04-24 08:20:00,45.1,45.0,29.95,NE,44,4.0,7.0,99,-99.99,,,-99.99,30.0,meteohub,2013-04-24 12:20:00,
2013-04-24 08:25:00,45.3,45.1,29.94,NW,322,2.0,11.0,99,-99.99,,,-99.99,32.0,meteohub,2013-04-24 12:25:00,
2013-04-24 08:30:00,45.3,45.1,29.94,North,350,2.0,11.0,99,-99.99,,,-99.99,32.0,meteohub,2013-04-24 12:30:00,
2013-04-24 08:35:00,45.5,45.3,29.94,NE,46,0.0,9.0,99,-99.99,,,-99.99,28.0,meteohub,2013-04-24 12:35:00,
2013-04-24 08:40:00,45.7,45.5,29.94,NNE,30,5.0,9.0,99,-99.99,,,-99.99,46.0,meteohub,2013-04-24 12:40:00,
2013-04-24 08:45:00,45.7,45.5,29.94,NNE,22,2.0,7.0,99,-99.99,,,-99.99,62.0,meteohub,2013-04-24 12:45:00,
2013-04-24 08:50:00,45.9,45.7,29.94,NNW,333,6.0,7.0,99,-99.99,,,-99.99,58.0,meteohub,2013-04-24 12:50:00,
2013-04-24 08:55:00,46.0,45.9,29.93,NNE,27,1.0,7.0,99,-99.99,,,-99.99,83.0,meteohub,2013-04-24 12:55:00,
2013-04-24 09:00:00,46.2,46.0,29.93,ENE,59,1.0,6.0,99,-99.99,,,-99.99,83.0,meteohub,2013-04-24 13:00:00,
2013-04-24 09:05:00,46.6,46.4,29.93,NNE,15,0.0,7.0,99,-99.99,,,-99.99,88.0,meteohub,2013-04-24 13:05:00,
2013-04-24 09:10:00,46.8,46.6,29.93,NNE,26,1.0,7.0,99,-99.99,,,-99.99,128.0,meteohub,2013-04-24 13:10:00,
2013-04-24 09:15:00,47.1,46.9,29.93,NNE,22,2.0,7.0,99,-99.99,,,-99.99,148.0,meteohub,2013-04-24 13:15:00,
2013-04-24 09:20:00,47.7,47.5,29.92,North,5,1.0,5.0,99,-99.99,,,-99.99,165.0,meteohub,2013-04-24 13:20:00,
2013-04-24 09:25:00,48.2,48.0,29.92,North,349,0.0,5.0,99,-99.99,,,-99.99,200.0,meteohub,2013-04-24 13:25:00,
2013-04-24 09:30:00,48.6,48.4,29.92,NNW,327,4.0,6.0,99,-99.99,,,-99.99,149.0,meteohub,2013-04-24 13:30:00,
2013-04-24 09:35:00,48.7,48.6,29.92,North,355,3.0,6.0,99,-99.99,,,-99.99,178.0,meteohub,2013-04-24 13:35:00,
2013-04-24 09:40:00,49.3,49.3,29.92,NNE,20,4.0,6.0,100,-99.99,,,-99.99,113.0,meteohub,2013-04-24 13:40:00,
2013-04-24 09:45:00,49.6,49.5,29.92,NE,49,7.0,7.0,99,-99.99,,,-99.99,111.0,meteohub,2013-04-24 13:45:00,
2013-04-24 09:50:00,50.0,50.0,29.91,ENE,59,0.0,9.0,100,-99.99,,,-99.99,149.0,meteohub,2013-04-24 13:50:00,
2013-04-24 09:55:00,50.4,50.0,29.91,NNE,17,2.0,9.0,99,-99.99,,,-99.99,116.0,meteohub,2013-04-24 13:55:00,
2013-04-24 10:00:00,50.5,50.5,29.91,NNE,17,2.0,9.0,100,-99.99,,,-99.99,128.0,meteohub,2013-04-24 14:00:00,
2013-04-24 10:05:00,50.7,50.7,29.91,NNE,12,4.0,8.0,100,-99.99,,,-99.99,95.0,meteohub,2013-04-24 14:05:00,
2013-04-24 10:10:00,50.7,50.4,29.91,NE,42,3.0,7.0,99,-99.99,,,-99.99,113.0,meteohub,2013-04-24 14:10:00,
2013-04-24 10:15:00,50.7,50.4,29.90,ESE,123,1.0,7.0,99,-99.99,,,-99.99,132.0,meteohub,2013-04-24 14:15:00,
2013-04-24 10:20:00,51.1,51.1,29.90,NE,40,2.0,10.0,100,-99.99,,,-99.99,149.0,meteohub,2013-04-24 14:20:00,
2013-04-24 10:25:00,51.1,50.7,29.90,NNE,31,1.0,10.0,99,-99.99,,,-99.99,153.0,meteohub,2013-04-24 14:25:00,
2013-04-24 10:30:00,51.3,50.9,29.90,North,5,0.0,10.0,99,-99.99,,,-99.99,125.0,meteohub,2013-04-24 14:30:00,
2013-04-24 10:35:00,51.1,50.7,29.90,North,5,1.0,7.0,99,-99.99,,,-99.99,93.0,meteohub,2013-04-24 14:35:00,
2013-04-24 10:40:00,49.5,48.9,29.89,North,355,0.0,7.0,98,-99.99,,,-99.99,109.0,meteohub,2013-04-24 14:40:00,
2013-04-24 10:45:00,49.3,49.1,29.89,NW,305,2.0,5.0,99,-99.99,,,-99.99,100.0,meteohub,2013-04-24 14:45:00,
2013-04-24 10:50:00,48.9,48.7,29.89,West,275,1.0,4.0,99,-99.99,,,-99.99,105.0,meteohub,2013-04-24 14:50:00,
2013-04-24 10:55:00,48.9,48.7,29.90,NNE,12,1.0,4.0,99,-99.99,,,-99.99,109.0,meteohub,2013-04-24 14:55:00,
2013-04-24 11:00:00,48.9,48.7,29.89,North,11,1.0,6.0,99,-99.99,,,-99.99,109.0,meteohub,2013-04-24 15:00:00,
2013-04-24 11:05:00,49.5,49.3,29.89,NW,317,3.0,6.0,99,-99.99,,,-99.99,155.0,meteohub,2013-04-24 15:05:00,
2013-04-24 11:10:00,50.2,49.8,29.89,NE,48,2.0,6.0,99,-99.99,,,-99.99,135.0,meteohub,2013-04-24 15:10:00,
2013-04-24 11:15:00,49.8,49.5,29.89,NE,52,0.0,5.0,99,-99.99,,,-99.99,98.0,meteohub,2013-04-24 15:15:00,
2013-04-24 11:20:00,49.6,49.5,29.89,East,88,1.0,5.0,99,-99.99,,,-99.99,127.0,meteohub,2013-04-24 15:20:00,
2013-04-24 11:25:00,50.2,49.8,29.88,North,0,1.0,5.0,99,-99.99,,,-99.99,114.0,meteohub,2013-04-24 15:25:00,
2013-04-24 11:30:00,50.4,50.0,29.88,North,349,2.0,6.0,99,-99.99,,,-99.99,118.0,meteohub,2013-04-24 15:30:00,
2013-04-24 11:35:00,51.1,50.7,29.88,NE,36,2.0,6.0,99,-99.99,,,-99.99,155.0,meteohub,2013-04-24 15:35:00,
2013-04-24 11:40:00,51.6,51.6,29.87,NNW,336,2.0,6.0,100,-99.99,,,-99.99,186.0,meteohub,2013-04-24 15:40:00,
2013-04-24 11:45:00,52.2,51.8,29.87,NNE,16,4.0,6.0,99,-99.99,,,-99.99,195.0,meteohub,2013-04-24 15:45:00,
2013-04-24 11:50:00,52.3,52.3,29.86,ENE,57,0.0,6.0,100,-99.99,,,-99.99,151.0,meteohub,2013-04-24 15:50:00,
2013-04-24 11:55:00,52.5,52.2,29.86,NNE,31,2.0,6.0,99,-99.99,,,-99.99,202.0,meteohub,2013-04-24 15:55:00,
2013-04-24 12:00:00,52.7,52.3,29.86,ENE,61,3.0,6.0,99,-99.99,,,-99.99,202.0,meteohub,2013-04-24 16:00:00,
2013-04-24 12:05:00,52.9,52.9,29.85,NNE,15,0.0,6.0,100,-99.99,,,-99.99,200.0,meteohub,2013-04-24 16:05:00,
2013-04-24 12:10:00,53.1,53.1,29.85,NNE,15,0.0,7.0,100,-99.99,,,-99.99,186.0,meteohub,2013-04-24 16:10:00,
2013-04-24 12:15:00,53.2,52.9,29.84,NNE,15,1.0,7.0,99,-99.99,,,-99.99,209.0,meteohub,2013-04-24 16:15:00,
2013-04-24 12:20:00,53.4,53.4,29.84,ENE,68,0.0,7.0,100,-99.99,,,-99.99,202.0,meteohub,2013-04-24 16:20:00,
2013-04-24 12:25:00,53.4,53.4,29.84,NNE,30,0.0,4.0,100,-99.99,,,-99.99,209.0,meteohub,2013-04-24 16:25:00,
2013-04-24 12:30:00,53.4,53.1,29.83,NNE,12,0.0,9.0,99,-99.99,,,-99.99,211.0,meteohub,2013-04-24 16:30:00,
2013-04-24 12:35:00,53.4,53.1,29.83,North,5,1.0,9.0,99,-99.99,,,-99.99,174.0,meteohub,2013-04-24 16:35:00,
2013-04-24 12:40:00,53.4,53.1,29.83,NNE,28,0.0,9.0,99,-99.99,,,-99.99,207.0,meteohub,2013-04-24 16:40:00,
2013-04-24 12:45:00,53.2,52.9,29.82,NW,323,2.0,8.0,99,-99.99,,,-99.99,232.0,meteohub,2013-04-24 16:45:00,
2013-04-24 12:50:00,53.4,53.1,29.82,ENE,73,0.0,8.0,99,-99.99,,,-99.99,163.0,meteohub,2013-04-24 16:50:00,
2013-04-24 12:55:00,53.4,53.1,29.82,NNE,19,0.0,8.0,99,-99.99,,,-99.99,130.0,meteohub,2013-04-24 16:55:00,
2013-04-24 13:00:00,53.2,52.9,29.82,NNW,335,2.0,4.0,99,-99.99,,,-99.99,135.0,meteohub,2013-04-24 17:00:00,
2013-04-24 13:05:00,53.4,53.1,29.82,NE,40,0.0,4.0,99,-99.99,,,-99.99,137.0,meteohub,2013-04-24 17:05:00,
2013-04-24 13:10:00,53.4,53.1,29.83,NNE,19,0.0,3.0,99,-99.99,,,-99.99,111.0,meteohub,2013-04-24 17:10:00,
2013-04-24 13:15:00,53.2,52.9,29.82,North,5,0.0,4.0,99,-99.99,,,-99.99,120.0,meteohub,2013-04-24 17:15:00,
2013-04-24 13:20:00,53.2,52.9,29.82,North,355,0.0,4.0,99,-99.99,,,-99.99,142.0,meteohub,2013-04-24 17:20:00,
2013-04-24 13:25:00,53.2,52.9,29.82,NW,305,0.0,4.0,99,-99.99,,,-99.99,165.0,meteohub,2013-04-24 17:25:00,
2013-04-24 13:30:00,53.2,52.9,29.82,ENE,59,1.0,3.0,99,-99.99,,,-99.99,156.0,meteohub,2013-04-24 17:30:00,
2013-04-24 13:35:00,53.4,53.1,29.82,NE,42,0.0,6.0,99,-99.99,,,-99.99,172.0,meteohub,2013-04-24 17:35:00,
2013-04-24 13:40:00,53.4,53.1,29.82,NNE,17,0.0,6.0,99,-99.99,,,-99.99,188.0,meteohub,2013-04-24 17:40:00,
2013-04-24 13:45:00,53.1,52.7,29.82,NNE,17,1.0,6.0,99,-99.99,,,-99.99,183.0,meteohub,2013-04-24 17:45:00,
2013-04-24 13:50:00,51.6,51.1,29.82,NNE,17,0.0,3.0,98,-99.99,,,-99.99,158.0,meteohub,2013-04-24 17:50:00,
2013-04-24 13:55:00,50.7,49.8,29.82,North,9,0.0,1.0,97,-99.99,,,-99.99,156.0,meteohub,2013-04-24 17:55:00,
2013-04-24 14:00:00,50.5,50.0,29.82,North,9,0.0,1.0,98,-99.99,,,-99.99,160.0,meteohub,2013-04-24 18:00:00,
2013-04-24 14:05:00,50.2,49.6,29.82,North,355,2.0,2.0,98,-99.99,,,-99.99,155.0,meteohub,2013-04-24 18:05:00,
2013-04-24 14:10:00,50.4,50.0,29.81,NW,321,0.0,2.0,99,-99.99,,,-99.99,202.0,meteohub,2013-04-24 18:10:00,
2013-04-24 14:15:00,51.4,51.1,29.81,NNE,22,0.0,3.0,99,-99.99,,,-99.99,237.0,meteohub,2013-04-24 18:15:00,
2013-04-24 14:20:00,52.3,52.0,29.81,NE,47,2.0,3.0,99,-99.99,,,-99.99,141.0,meteohub,2013-04-24 18:20:00,
2013-04-24 14:25:00,52.3,52.0,29.81,NNE,30,3.0,7.0,99,-99.99,,,-99.99,91.0,meteohub,2013-04-24 18:25:00,
2013-04-24 14:30:00,52.5,52.2,29.81,NNE,15,2.0,7.0,99,-99.99,,,-99.99,146.0,meteohub,2013-04-24 18:30:00,
2013-04-24 14:35:00,52.9,52.5,29.80,North,9,2.0,7.0,99,-99.99,,,-99.99,185.0,meteohub,2013-04-24 18:35:00,
2013-04-24 14:40:00,52.9,52.5,29.80,North,350,0.0,7.0,99,-99.99,,,-99.99,179.0,meteohub,2013-04-24 18:40:00,
2013-04-24 14:45:00,52.9,52.5,29.80,NE,40,1.0,7.0,99,-99.99,,,-99.99,169.0,meteohub,2013-04-24 18:45:00,
2013-04-24 14:50:00,52.9,52.5,29.79,NNE,17,0.0,7.0,99,-99.99,,,-99.99,141.0,meteohub,2013-04-24 18:50:00,
2013-04-24 14:55:00,52.7,52.3,29.79,NNE,17,1.0,3.0,99,-99.99,,,-99.99,107.0,meteohub,2013-04-24 18:55:00,
2013-04-24 15:00:00,52.3,52.0,29.79,NNE,19,1.0,3.0,99,-99.99,,,-99.99,128.0,meteohub,2013-04-24 19:00:00,
2013-04-24 15:05:00,52.3,52.0,29.79,NE,38,3.0,3.0,99,-99.99,,,-99.99,146.0,meteohub,2013-04-24 19:05:00,
2013-04-24 15:10:00,52.5,52.2,29.79,North,355,1.0,6.0,99,-99.99,,,-99.99,162.0,meteohub,2013-04-24 19:10:00,
2013-04-24 15:15:00,52.7,52.3,29.79,NNE,32,0.0,7.0,99,-99.99,,,-99.99,183.0,meteohub,2013-04-24 19:15:00,
2013-04-24 15:20:00,52.9,52.5,29.78,NE,38,0.0,7.0,99,-99.99,,,-99.99,243.0,meteohub,2013-04-24 19:20:00,
2013-04-24 15:25:00,53.1,52.7,29.77,NE,35,2.0,7.0,99,-99.99,,,-99.99,397.0,meteohub,2013-04-24 19:25:00,
2013-04-24 15:30:00,53.4,53.1,29.75,NNE,19,5.0,8.0,99,-99.99,,,-99.99,552.0,meteohub,2013-04-24 19:30:00,
2013-04-24 15:35:00,53.4,53.1,29.73,NNE,29,8.0,11.0,99,-99.99,,,-99.99,450.0,meteohub,2013-04-24 19:35:00,
2013-04-24 15:40:00,53.6,53.2,29.75,NNE,25,2.0,11.0,99,-99.99,,,-99.99,503.0,meteohub,2013-04-24 19:40:00,
2013-04-24 15:45:00,53.8,53.4,29.74,ENE,61,3.0,11.0,99,-99.99,,,-99.99,624.0,meteohub,2013-04-24 19:45:00,
2013-04-24 15:50:00,54.0,53.6,29.74,NW,314,2.0,10.0,99,-99.99,,,-99.99,301.0,meteohub,2013-04-24 19:50:00,
2013-04-24 15:55:00,53.8,53.4,29.75,WSW,252,1.0,6.0,99,-99.99,,,-99.99,134.0,meteohub,2013-04-24 19:55:00,
2013-04-24 16:00:00,53.1,52.5,29.76,West,260,0.0,6.0,98,-99.99,,,-99.99,86.0,meteohub,2013-04-24 20:00:00,
2013-04-24 16:05:00,52.7,52.2,29.76,North,349,3.0,6.0,98,-99.99,,,-99.99,142.0,meteohub,2013-04-24 20:05:00,
2013-04-24 16:10:00,52.3,51.8,29.76,NNE,24,0.0,5.0,98,-99.99,,,-99.99,70.0,meteohub,2013-04-24 20:10:00,
2013-04-24 16:15:00,52.2,51.6,29.75,NNE,31,0.0,5.0,98,-99.99,,,-99.99,70.0,meteohub,2013-04-24 20:15:00,
2013-04-24 16:20:00,52.2,51.6,29.75,NE,49,3.0,5.0,98,-99.99,,,-99.99,91.0,meteohub,2013-04-24 20:20:00,
2013-04-24 16:25:00,51.6,51.1,29.75,NNE,21,0.0,5.0,98,-99.99,,,-99.99,84.0,meteohub,2013-04-24 20:25:00,
2013-04-24 16:30:00,51.6,51.1,29.75,NNE,18,0.0,5.0,98,-99.99,,,-99.99,83.0,meteohub,2013-04-24 20:30:00,
2013-04-24 16:35:00,51.6,51.1,29.75,NNE,17,0.0,5.0,98,-99.99,,,-99.99,183.0,meteohub,2013-04-24 20:35:00,
2013-04-24 16:40:00,51.4,50.9,29.75,NE,40,1.0,4.0,98,-99.99,,,-99.99,153.0,meteohub,2013-04-24 20:40:00,
2013-04-24 16:45:00,51.6,51.1,29.75,NNE,15,1.0,4.0,98,-99.99,,,-99.99,113.0,meteohub,2013-04-24 20:45:00,
2013-04-24 16:50:00,51.6,51.1,29.76,NNE,20,3.0,4.0,98,-99.99,,,-99.99,88.0,meteohub,2013-04-24 20:50:00,
2013-04-24 16:55:00,51.4,50.9,29.76,NE,34,1.0,3.0,98,-99.99,,,-99.99,77.0,meteohub,2013-04-24 20:55:00,
2013-04-24 17:00:00,51.4,50.9,29.76,NE,45,1.0,3.0,98,-99.99,,,-99.99,77.0,meteohub,2013-04-24 21:00:00,
2013-04-24 17:05:00,51.3,50.4,29.76,North,0,0.0,3.0,97,-99.99,,,-99.99,65.0,meteohub,2013-04-24 21:05:00,
2013-04-24 17:10:00,51.1,50.5,29.76,NNE,25,0.0,2.0,98,-99.99,,,-99.99,67.0,meteohub,2013-04-24 21:10:00,
2013-04-24 17:15:00,50.9,50.0,29.76,NNE,18,0.0,4.0,97,-99.99,,,-99.99,60.0,meteohub,2013-04-24 21:15:00,
2013-04-24 17:20:00,50.7,49.8,29.77,NNE,18,0.0,4.0,97,-99.99,,,-99.99,63.0,meteohub,2013-04-24 21:20:00,
2013-04-24 17:25:00,50.9,50.4,29.77,NNE,18,0.0,3.0,98,-99.99,,,-99.99,86.0,meteohub,2013-04-24 21:25:00,
2013-04-24 17:30:00,51.1,50.5,29.78,NNE,18,0.0,1.0,98,-99.99,,,-99.99,104.0,meteohub,2013-04-24 21:30:00,
2013-04-24 17:35:00,50.9,50.0,29.78,NNE,19,0.0,1.0,97,-99.99,,,-99.99,102.0,meteohub,2013-04-24 21:35:00,
2013-04-24 17:40:00,50.5,49.6,29.77,NNE,19,0.0,1.0,97,-99.99,,,-99.99,98.0,meteohub,2013-04-24 21:40:00,
2013-04-24 17:45:00,50.5,49.6,29.77,NNE,22,2.0,2.0,97,-99.99,,,-99.99,86.0,meteohub,2013-04-24 21:45:00,
2013-04-24 17:50:00,50.4,49.5,29.77,NNE,22,0.0,2.0,97,-99.99,,,-99.99,90.0,meteohub,2013-04-24 21:50:00,
2013-04-24 17:55:00,50.5,50.0,29.76,NNE,21,1.0,2.0,98,-99.99,,,-99.99,90.0,meteohub,2013-04-24 21:55:00,
2013-04-24 18:00:00,50.5,50.0,29.78,NE,38,0.0,3.0,98,-99.99,,,-99.99,39.0,meteohub,2013-04-24 22:00:00,
2013-04-24 18:05:00,50.4,49.5,29.78,NE,38,0.0,3.0,97,-99.99,,,-99.99,32.0,meteohub,2013-04-24 22:05:00,
2013-04-24 18:10:00,49.6,48.6,29.79,NE,42,1.0,3.0,96,-99.99,,,-99.99,26.0,meteohub,2013-04-24 22:10:00,
2013-04-24 18:15:00,49.5,48.6,29.79,NE,45,0.0,2.0,97,-99.99,,,-99.99,28.0,meteohub,2013-04-24 22:15:00,
2013-04-24 18:21:00,49.3,48.4,29.79,NE,45,0.0,2.0,97,-99.99,,,-99.99,26.0,meteohub,2013-04-24 22:21:00,
2013-04-24 18:26:00,49.3,48.4,29.80,NE,45,0.0,2.0,97,-99.99,,,-99.99,21.0,meteohub,2013-04-24 22:26:00,
2013-04-24 18:31:00,49.1,48.2,29.81,NE,45,0.0,0.0,97,-99.99,,,-99.99,14.0,meteohub,2013-04-24 22:31:00,
2013-04-24 18:36:00,48.4,47.3,29.81,West,273,1.0,3.0,96,-99.99,,,-99.99,11.0,meteohub,2013-04-24 22:36:00,
2013-04-24 18:41:00,47.5,46.4,29.81,West,263,0.0,3.0,96,-99.99,,,-99.99,7.0,meteohub,2013-04-24 22:41:00,
2013-04-24 18:46:00,46.9,45.9,29.81,West,263,0.0,3.0,96,-99.99,,,-99.99,7.0,meteohub,2013-04-24 22:46:00,
2013-04-24 18:51:00,46.6,45.5,29.81,West,261,0.0,2.0,96,-99.99,,,-99.99,5.0,meteohub,2013-04-24 22:51:00,
2013-04-24 18:56:00,46.6,45.9,29.81,ESE,114,0.0,3.0,97,-99.99,,,-99.99,5.0,meteohub,2013-04-24 22:56:00,
2013-04-24 19:01:00,46.4,45.7,29.81,ESE,114,0.0,3.0,97,-99.99,,,-99.99,0.0,meteohub,2013-04-24 23:01:00,
2013-04-24 19:06:00,46.2,45.5,29.82,ESE,113,0.0,3.0,97,-99.99,,,-99.99,0.0,meteohub,2013-04-24 23:06:00,
2013-04-24 19:11:00,46.2,45.5,29.82,ESE,113,0.0,3.0,97,-99.99,,,-99.99,0.0,meteohub,2013-04-24 23:11:00,
2013-04-24 19:16:00,46.0,45.3,29.83,ESE,113,0.0,2.0,97,-99.99,,,-99.99,0.0,meteohub,2013-04-24 23:16:00,
2013-04-24 19:21:00,46.0,45.3,29.83,East,80,1.0,1.0,97,-99.99,,,-99.99,0.0,meteohub,2013-04-24 23:21:00,
2013-04-24 19:26:00,45.7,45.0,29.83,SE,126,0.0,3.0,97,-99.99,,,-99.99,0.0,meteohub,2013-04-24 23:26:00,
2013-04-24 19:31:00,45.5,44.8,29.82,SE,126,0.0,3.0,97,-99.99,,,-99.99,0.0,meteohub,2013-04-24 23:31:00,
2013-04-24 19:36:00,45.3,44.8,29.82,East,101,0.0,3.0,98,-99.99,,,-99.99,0.0,meteohub,2013-04-24 23:36:00,
2013-04-24 19:41:00,45.5,45.0,29.82,East,100,0.0,3.0,98,-99.99,,,-99.99,0.0,meteohub,2013-04-24 23:41:00,
2013-04-24 19:46:00,45.7,45.1,29.82,East,100,0.0,3.0,98,-99.99,,,-99.99,0.0,meteohub,2013-04-24 23:46:00,
2013-04-24 19:51:00,45.7,45.1,29.82,East,100,0.0,3.0,98,-99.99,,,-99.99,0.0,meteohub,2013-04-24 23:51:00,
2013-04-24 19:56:00,45.7,45.1,29.82,East,100,0.0,1.0,98,-99.99,,,-99.99,0.0,meteohub,2013-04-24 23:56:00,
2013-04-24 20:01:00,45.7,45.1,29.82,East,100,0.0,2.0,98,-99.99,,,-99.99,0.0,meteohub,2013-04-25 00:01:00,
2013-04-24 20:06:00,45.7,45.1,29.82,East,100,0.0,2.0,98,-99.99,,,-99.99,0.0,meteohub,2013-04-25 00:06:00,
2013-04-24 20:11:00,45.7,45.1,29.82,East,100,0.0,2.0,98,-99.99,,,-99.99,0.0,meteohub,2013-04-25 00:11:00,
2013-04-24 20:16:00,45.5,45.0,29.83,East,100,0.0,1.0,98,-99.99,,,-99.99,0.0,meteohub,2013-04-25 00:16:00,
2013-04-24 20:21:00,45.5,45.0,29.83,East,100,0.0,2.0,98,-99.99,,,-99.99,0.0,meteohub,2013-04-25 00:21:00,
2013-04-24 20:26:00,45.5,45.0,29.82,East,100,0.0,2.0,98,-99.99,,,-99.99,0.0,meteohub,2013-04-25 00:26:00,
2013-04-24 20:31:00,45.5,45.3,29.83,East,100,0.0,2.0,99,-99.99,,,-99.99,0.0,meteohub,2013-04-25 00:31:00,
2013-04-24 20:36:00,45.7,45.5,29.83,East,100,0.0,2.0,99,-99.99,,,-99.99,0.0,meteohub,2013-04-25 00:36:00,
2013-04-24 20:41:00,45.7,45.5,29.84,East,100,0.0,2.0,99,-99.99,,,-99.99,0.0,meteohub,2013-04-25 00:41:00,
2013-04-24 20:46:00,45.7,45.5,29.85,East,100,0.0,1.0,99,-99.99,,,-99.99,0.0,meteohub,2013-04-25 00:46:00,
2013-04-24 20:51:00,45.7,45.5,29.85,SE,142,0.0,2.0,99,-99.99,,,-99.99,0.0,meteohub,2013-04-25 00:51:00,
2013-04-24 20:56:00,45.7,45.5,29.86,SSE,164,1.0,2.0,99,-99.99,,,-99.99,0.0,meteohub,2013-04-25 00:56:00,
2013-04-24 21:01:00,45.7,45.5,29.86,ESE,115,0.0,2.0,99,-99.99,,,-99.99,0.0,meteohub,2013-04-25 01:01:00,
2013-04-24 21:06:00,45.9,45.7,29.86,ESE,112,0.0,2.0,99,-99.99,,,-99.99,0.0,meteohub,2013-04-25 01:06:00,
2013-04-24 21:11:00,45.9,45.7,29.87,ESE,109,0.0,2.0,99,-99.99,,,-99.99,0.0,meteohub,2013-04-25 01:11:00,
2013-04-24 21:16:00,46.0,45.9,29.86,ESE,111,1.0,2.0,99,-99.99,,,-99.99,0.0,meteohub,2013-04-25 01:16:00,
2013-04-24 21:21:00,46.2,46.0,29.86,East,95,1.0,3.0,99,-99.99,,,-99.99,0.0,meteohub,2013-04-25 01:21:00,
2013-04-24 21:26:00,46.2,46.0,29.86,ESE,105,1.0,6.0,99,-99.99,,,-99.99,0.0,meteohub,2013-04-25 01:26:00,
2013-04-24 21:31:00,46.6,46.4,29.86,East,80,5.0,6.0,99,-99.99,,,-99.99,0.0,meteohub,2013-04-25 01:31:00,
2013-04-24 21:36:00,46.6,46.4,29.86,East,88,1.0,5.0,99,-99.99,,,-99.99,0.0,meteohub,2013-04-25 01:36:00,
2013-04-24 21:41:00,46.6,46.4,29.86,East,85,2.0,6.0,99,-99.99,,,-99.99,0.0,meteohub,2013-04-25 01:41:00,
2013-04-24 21:46:00,46.6,46.4,29.86,ESE,120,0.0,6.0,99,-99.99,,,-99.99,0.0,meteohub,2013-04-25 01:46:00,
2013-04-24 21:51:00,46.4,46.2,29.86,South,182,1.0,5.0,99,-99.99,,,-99.99,0.0,meteohub,2013-04-25 01:51:00,
2013-04-24 21:56:00,46.2,46.0,29.87,SE,132,0.0,4.0,99,-99.99,,,-99.99,0.0,meteohub,2013-04-25 01:56:00,
2013-04-24 22:01:00,46.0,45.9,29.87,South,179,1.0,3.0,99,-99.99,,,-99.99,0.0,meteohub,2013-04-25 02:01:00,
2013-04-24 22:06:00,46.0,45.9,29.87,ESE,119,0.0,2.0,99,-99.99,,,-99.99,0.0,meteohub,2013-04-25 02:06:00,
2013-04-24 22:11:00,46.0,45.9,29.87,ESE,116,0.0,2.0,99,-99.99,,,-99.99,0.0,meteohub,2013-04-25 02:11:00,
2013-04-24 22:16:00,45.9,45.7,29.87,ESE,107,0.0,2.0,99,-99.99,,,-99.99,0.0,meteohub,2013-04-25 02:16:00,
2013-04-24 22:21:00,45.9,45.7,29.86,East,91,0.0,2.0,99,-99.99,,,-99.99,0.0,meteohub,2013-04-25 02:21:00,
2013-04-24 22:26:00,45.9,45.7,29.86,East,91,0.0,3.0,99,-99.99,,,-99.99,0.0,meteohub,2013-04-25 02:26:00,
2013-04-24 22:31:00,45.7,45.5,29.85,ESE,119,0.0,5.0,99,-99.99,,,-99.99,0.0,meteohub,2013-04-25 02:31:00,
2013-04-24 22:36:00,45.7,45.5,29.86,East,80,0.0,5.0,99,-99.99,,,-99.99,0.0,meteohub,2013-04-25 02:36:00,
2013-04-24 22:41:00,45.7,45.5,29.86,East,94,0.0,5.0,99,-99.99,,,-99.99,0.0,meteohub,2013-04-25 02:41:00,
2013-04-24 22:46:00,45.5,45.3,29.87,SSE,165,0.0,5.0,99,-99.99,,,-99.99,0.0,meteohub,2013-04-25 02:46:00,
2013-04-24 22:51:00,45.3,45.1,29.86,ESE,105,0.0,7.0,99,-99.99,,,-99.99,0.0,meteohub,2013-04-25 02:51:00,
2013-04-24 22:56:00,45.3,45.1,29.87,ESE,119,1.0,7.0,99,-99.99,,,-99.99,0.0,meteohub,2013-04-25 02:56:00,
2013-04-24 23:01:00,45.1,45.0,29.87,East,86,3.0,7.0,99,-99.99,,,-99.99,0.0,meteohub,2013-04-25 03:01:00,
2013-04-24 23:06:00,45.0,44.8,29.87,East,97,2.0,7.0,99,-99.99,,,-99.99,0.0,meteohub,2013-04-25 03:06:00,
2013-04-24 23:11:00,44.8,44.2,29.87,East,90,0.0,6.0,98,-99.99,,,-99.99,0.0,meteohub,2013-04-25 03:11:00,
2013-04-24 23:16:00,44.4,44.2,29.86,ESE,106,1.0,7.0,99,-99.99,,,-99.99,0.0,meteohub,2013-04-25 03:16:00,
2013-04-24 23:21:00,44.2,44.1,29.86,East,87,2.0,7.0,99,-99.99,,,-99.99,0.0,meteohub,2013-04-25 03:21:00,
2013-04-24 23:26:00,44.2,43.7,29.87,ESE,105,0.0,7.0,98,-99.99,,,-99.99,0.0,meteohub,2013-04-25 03:26:00,
2013-04-24 23:31:00,44.2,44.1,29.88,East,92,1.0,6.0,99,-99.99,,,-99.99,0.0,meteohub,2013-04-25 03:31:00,
2013-04-24 23:36:00,44.2,44.1,29.88,East,98,1.0,7.0,99,-99.99,,,-99.99,0.0,meteohub,2013-04-25 03:36:00,
2013-04-24 23:41:00,44.2,44.1,29.87,ENE,78,2.0,7.0,99,-99.99,,,-99.99,0.0,meteohub,2013-04-25 03:41:00,
2013-04-24 23:46:00,44.2,44.1,29.87,NE,55,1.0,6.0,99,-99.99,,,-99.99,0.0,meteohub,2013-04-25 03:46:00,
2013-04-24 23:51:00,44.2,44.1,29.87,East,91,0.0,6.0,99,-99.99,,,-99.99,0.0,meteohub,2013-04-25 03:51:00,
2013-04-24 23:56:00,44.1,43.9,29.86,East,101,1.0,6.0,99,-99.99,,,-99.99,0.0,meteohub,2013-04-25 03:56:00,